Terminal Aerodrome Forecast
Issued by NWS

Home | Current Version | Previous Version | Text Only | Print | Product List | Glossary On
Versions: 1 2 3 4 5 6 7 8 9 10 11 12 13 14 15 16
000
FTUS44 KCRP 031720
TAFLRD
TAF
KLRD 031720Z 0318/0418 06006KT P6SM FEW100
     FM040200 12014G18KT P6SM FEW080 BKN200
     FM040700 15010KT P6SM FEW030=

USA.gov is the U.S. government's official web portal to all federal, state and local government web resources and services.